Location: Maccacari
(45.1333°N, 11.1333°E)
Time: 08:01:13
(UTC+00:00)

Meteor 2-9 Rocket - Pass Details

Date: 18 September 2020
Orbit: 791 x 896 km, 81.3° (Epoch: 29 October)

Event Time Altitude Azimuth Distance (km) Brightness Sun altitude
Rises 17:49:50 0° 178° (S) 3,496 7.3 -6.1°
Reaches altitude 10° 17:52:18 10° 175° (S) 2,560 6.6 -6.5°
Maximum altitude 17:58:04 63° 96° (E) 990 4.3 -7.5°
Drops below altitude 10° 18:03:48 10° 17° (NNE) 2,547 6.6 -8.5°
Sets 18:06:15 0° 14° (NNE) 3,477 7.4 -8.9°
